Zurück zum Katalog

PSLV DEB

AktivSSO
NORAD 41792·DEBRIS·🇮🇳 India

Gestartet Sep 26, 2016 von Satish Dhawan Space Centre

Loading…

Nächste Überflüge (nächste 24 Stunden)

TLE

AktuellSource: Space-Track

Epoche: Sep 13, 2026, 22:22 UTC

1 41792U 16059K   26256.93197979  .00002013  00000-0  27061-3 0  9994
2 41792  97.7750 275.5032 0019508 218.5958 141.3861 14.80228817534002

Verfolge PSLV DEB in Echtzeit mit AllMySat

Download on the App Store